Notices

What's New in latest Release from April 7th, 2021:

- Updated Glossary, including Speed of Maximum Gust, and Total Hourly Precipitation

- Updated national and regional climate services offices contacts and prices information

- Addition of station inventory lists for 1981-2010, 1971-2000, and 1961-1990 Normals.

If you haven't already, please take our survey and provide feedback about our website: https://eccc.sondage-survey.ca/f/LanguageSelection.aspx?s=442ca660-fcf1-47c0-95a9-59707d6fd709

Hourly Data Report for November 23, 2020

VICTORIA UNIVERSITY CS
BRITISH COLUMBIA
Current Station Operator: ECCC - MSC

48°27'25.200" N
123°18'16.600" W
60.10 m
1018598
71783
WYJ

Download Data

Hourly Data (November 2020)
Hourly Data Report for November 23, 2020
TIME
LST
Temp Definition
°C
Dew Point Definition
°C
Rel Hum Definition
%
Precip. Amount Definition
mm

Wind Dir Definition
10's deg

Wind Spd Definition
km/h
Visibility Definition
km
Stn Press Definition
kPa
Hmdx Definition


Wind Chill Definition


Weather Definition


00:00 4.5 4.4 100 0.0 0 1   100.42     LegendNANA
01:00 5.7 5.6 100 0.0 0 1   100.38     LegendNANA
02:00 6.3 6.0 98 0.0 13 2   100.36     LegendNANA
03:00 6.3 6.2 99 0.4 7 3   100.39     LegendNANA
04:00 6.1 6.1 100 2.7 5 2   100.39     LegendNANA
05:00 5.9 5.8 99 1.0 11 2   100.43     LegendNANA
06:00 5.8 5.8 100 1.1 0 1   100.46     LegendNANA
07:00 5.4 5.4 100 0.3 31 2   100.55     LegendNANA
08:00 5.6 5.5 100 0.6 6 3   100.62     LegendNANA
09:00 5.6 5.5 99 0.0 33 3   100.71     LegendNANA
10:00 7.5 6.3 92 0.3 20 2   100.76     LegendNANA
11:00 8.0 6.3 89 0.0 34 5   100.83     LegendNANA
12:00 9.2 5.4 77 0.0 28 5   100.87     LegendNANA
13:00 8.4 5.4 82 0.0 23 5   100.90     LegendNANA
14:00 7.3 5.5 88 0.0 1 7   100.98     LegendNANA
15:00 7.3 5.4 87 0.0 2 4   101.02     LegendNANA
16:00 6.7 6.0 95 0.0   0   101.08     LegendNANA
17:00 6.0 5.7 98 0.0   0   101.10     LegendNANA
18:00 4.9 4.6 98 0.0 24 3   101.17     LegendNANA
19:00 5.3 5.0 98 0.0 26 3   101.20     LegendNANA
20:00 5.6 5.3 98 0.0 22 2   101.26     LegendNANA
21:00 7.3 6.6 95 0.0 17 5   101.26     LegendNANA
22:00 7.5 6.6 94 0.0 17 4   101.28     LegendNANA
23:00 7.7 5.9 88 0.0 15 5   101.25     LegendNANA

Notes on Data Quality.

Legend

  • E = Estimated
  • M = Missing
  • NA = Not Available*
  • [empty] = Indicates an unobserved value
Date modified: